Regional Weather Roundup
Issued by NWS

Home | Current Version | Previous Version | Text Only | Print | Product List | Glossary On
Versions: 1 2 3 4 5 6 7 8 9 10 11 12 13 14 15 16 17 18 19 20 21 22 23 24 25 26 27
000
ASUS45 KBOU 251307
RWRCO

WEATHER ROUNDUP FOR COLORADO
NATIONAL WEATHER SERVICE DENVER/BOULDER CO
600 AM MST SAT FEB 25 2017

NOTE: "FAIR" INDICATES FEW OR NO CLOUDS BELOW 12000 FEET WITH NO
SIGNIFICANT WEATHER AND/OR OBSTRUCTIONS TO VISIBILITY.

COZ001>005-013-030-031-251400-
...NORTHWEST COLORADO...

CITY           SKY/WX    TMP DP  RH WIND       PRES   REMARKS
CRAIG          CLOUDY    12   7  80 E5        30.03S WCI   4
HAYDEN         FAIR      10   3  72 E6        30.00S WCI   1
MEEKER         FAIR       5   1  83 SE5       30.02F WCI  -4
MOUNT WERNER   NOT AVBL
STEAMBOAT SPGS CLOUDY     6   3  87 CALM      29.99F
WALDEN         NOT AVBL
$$

COZ006>008-011-251400-
...WEST CENTRAL VALLEYS...

CITY           SKY/WX    TMP DP  RH WIND       PRES   REMARKS
GRAND JUNCTION FAIR      17  13  84 E5        30.09S WCI  10
MONTROSE       FAIR      13   8  81 S7        30.10S WCI   3
EAGLE          FLURRIES   8   3  80 E8        30.05R WCI  -4
RIFLE          CLOUDY     9   6  88 CALM      30.08S
DELTA          FAIR      18  11  75 CALM      30.11R
NUCLA          FAIR      14   5  67 E7        30.11R WCI   4
$$

COZ017>023-064>068-251400-
...SOUTHWEST COLORADO...

CITY           SKY/WX    TMP DP  RH WIND       PRES   REMARKS
DURANGO        FAIR      12   5  73 CALM      30.04S
CORTEZ         FAIR      12   7  80 E3        30.08S
PAGOSA SPRINGS FAIR       3   0  89 CALM      30.02S
TELLURIDE      MOCLDY     6   2  81 SE6       29.98S WCI  -4
WOLF CREEK PAS FOG       -4  -6  92 SW18G26   29.86F VSB 1/4 WCI -26
$$

COZ009-010-012-014-032>034-037-058>063-251400-
...CENTRAL COLORADO...

CITY           SKY/WX    TMP DP  RH WIND       PRES   REMARKS
ASPEN          FAIR       2  -4  76 SW8       29.96R WCI -12
BUENA VISTA    FAIR      14  -7  38 W9G20     29.93S WCI   2
COPPER MTN     FAIR      -4 -11  71 MISG      29.75S
BERTHOUD PASS  CLOUDY    -9 -18  64 NW26G36   29.68R HAZE    WCI -37
COTTONWOOD PAS FAIR      10  -8  44 SW23G39   29.83S WCI -10
GUNNISON       FAIR      -5  -9  83 E3        30.02R
KREMMLING      CLOUDY    12   5  73 E3        29.98S
LEADVILLE      MOCLDY     1  -9  62 S5        29.84S WCI  -9
MONARCH PASS   CLOUDY    -4  -8  84 W31       29.87S WCI -32
SALIDA         FAIR      17  -2  42 W10G20    30.02R WCI   5
SUNLIGHT       NOT AVBL
WILKERSON PASS FAIR      -2  -8  78 W12G24    29.74F WCI -20
$$

COZ069>075-251400-
...SAN LUIS VALLEY/SANGRE DE CRISTO MOUNTAINS...

CITY           SKY/WX    TMP DP  RH WIND       PRES   REMARKS
ALAMOSA        FAIR       8   4  83 SW5       29.99R WCI   0
LA VETA PASS   FAIR       5  -4  66 SW14G24   29.84S WCI -12
SAGUACHE       FAIR       7   0  72 N6        29.98S WCI  -3
$$

COZ035-036-038>040-251400-
...NORTHERN COLORADO FRONT RANGE...

CITY           SKY/WX    TMP DP  RH WIND       PRES   REMARKS
DENVER INTL AP FAIR      15   6  67 SW8       29.93S WCI   4
DMNS CITY PARK   N/A     18   6  58 SE5       29.94S WCI  11
AURORA         PTCLDY    12   5  74 S7        29.94S WCI   1
FRONT RANGE AP NOT AVBL
ERIE MUNI ARPT FAIR      10   7  87 CALM      29.95S
BOULDER MUN AP FAIR      14  10  85 NW3       29.93S
CENTENNIAL     FAIR      16   2  54 SW7       29.93S WCI   6
BROOMFIELD     PTCLDY    21   1  42 NW7       29.93R WCI  13
FORT COLLINS   FAIR      11   5  77 NE3       29.96S
LONGMONT       FAIR      10   6  86 CALM      29.97S
$$

COZ041-046-047-076>085-087-088-251400-
...PIKES PEAK/PALMER DIVIDE AND SOUTHERN FOOTHILLS...

CITY           SKY/WX    TMP DP  RH WIND       PRES   REMARKS
COLO. SPRINGS  FAIR       9   5  84 NE9       29.94F WCI  -4
A. F. ACADEMY  FAIR      19  -4  35 W21G29    29.89F WCI   3
SCHRIEVER AFB  MOCLDY     8   6  92 CALM      29.95S
ELLICOTT       CLOUDY   N/A N/A N/A W7          N/A
FALCON         FAIR       6   3  88 W7        29.91F WCI  -5
FORT CARSON    FAIR       7   4  85 NW7       29.94F WCI  -4
LIMON          FAIR       4   3  96 N3        29.96F
MONUMENT HILL  FAIR       5  -2  72 W10       29.90S WCI -10
TRINIDAD       FAIR      18   7  62 W12       29.99R WCI   5
$$

COZ042>045-048>051-090-091-251400-
...NORTHEAST COLORADO...

CITY           SKY/WX    TMP DP  RH WIND       PRES   REMARKS
GREELEY ARPT   FAIR       9   6  88 W5        29.99R WCI   1
AKRON          FAIR      16  11  80 W9        29.96S WCI   4
BURLINGTON     FAIR      18  15  88 S10       30.01F WCI   6
WRAY           NOT AVBL
STERLING       FAIR       3   0  85 CALM      29.98F
HOLYOKE        FAIR      14   9  79 SW8       29.99F WCI   3
FORT MORGAN    FAIR      10   7  87 CALM      29.98S
$$

COZ086-089-092>099-251400-
...SOUTHEAST COLORADO...

CITY           SKY/WX    TMP DP  RH WIND       PRES   REMARKS
PUEBLO         FAIR      11   5  77 N5        30.01F WCI   3
LA JUNTA       FAIR      14  11  87 W6        30.03F WCI   5
LAMAR          FAIR      13   9  84 S9        30.06F WCI   1
SPRINGFIELD      N/A     10   7  87 S7        30.05F WCI  -1
$$




USA.gov is the U.S. government's official web portal to all federal, state and local government web resources and services.